Regional Weather Roundup
Issued by NWS Upton, NY

Current Version | Previous Version | Graphics & Text | Print | Product List | Glossary Off
Versions: 1 2 3 4 5 6 7 8 9 10 11 12 13 14 15 16 17 18 19 20 21 22 23 24 25 26 27

000
ASUS41 KOKX 291504
RWROKX

REGIONAL WEATHER ROUNDUP
NATIONAL WEATHER SERVICE NEW YORK NY
1100 AM EDT SUN MAY 29 2016

NOTE: "FAIR" INDICATES FEW OR NO CLOUDS BELOW 12,000 FEET WITH NO
SIGNIFICANT WEATHER AND/OR OBSTRUCTIONS TO VISIBILITY.

NYZ071-072-176-178-NJZ106-104-291600-
NEW YORK CITY METRO AREA


CITY           SKY/WX    TMP DP  RH WIND       PRES   REMARKS
CENTRAL PARK   MOSUNNY   82  60  47 CALM      30.16F
LAGUARDIA APRT PTSUNNY   86  64  47 SW8       30.13S
KENNEDY INTL   PTSUNNY   75  59  57 S8        30.16S
NEWARK/LIBERTY PTSUNNY   84  59  42 SE8       30.13S
BRNX BOT. GARD NOT AVBL
TETERBORO      SUNNY     84  59  42 VRB6      30.11F
$$

NYZ177-179-078>081-291600-
LONG ISLAND NEW YORK

CITY           SKY/WX    TMP DP  RH WIND       PRES   REMARKS
FARMINGDALE    SUNNY     78  61  55 SW10      30.15S
ISLIP          PTSUNNY   77  61  57 S9        30.15S
SHIRLEY        SUNNY     78  62  57 S10       30.16S
RIVERHEAD      NOT AVBL
WESTHAMPTON    SUNNY     74  60  61 SW12      30.17F
EAST HAMPTON   FAIR      76  62  61 S5        30.15F
MONTAUK POINT    N/A     71  63  75 VRB3      30.18S
$$

NYZ052-065-067-291600-
HUDSON VALLEY

CITY           SKY/WX    TMP DP  RH WIND       PRES   REMARKS
WHITE PLAINS   SUNNY     83  63  50 CALM      30.14S
NEWBURGH       SUNNY     82  72  69 W7        30.13F
MONTGOMERY     SUNNY     83  70  64 VRB7      30.11F
POUGHKEEPSIE   SUNNY     85  68  56 S6        30.10F
ALBANY         PTSUNNY   84  68  58 S7        30.09F
$$

NJZ001-105-106-008-010-013-015-019>022-104-291600-
NEW JERSEY

CITY           SKY/WX    TMP DP  RH WIND       PRES   REMARKS
NEWARK/LIBERTY PTSUNNY   84  59  42 SE8       30.13S
TETERBORO      SUNNY     84  59  42 VRB6      30.11F
CALDWELL       SUNNY     83  62  49 VRB5      30.13F
MORRISTOWN     MOSUNNY   82  63  51 S7        30.13F
SOMERVILLE     MOSUNNY   82  65  56 CALM      30.12S
SUSSEX         SUNNY     80  66  62 VRB5      30.13F
ANDOVER          N/A     80  64  58 W5        30.14F
TRENTON        SUNNY     81  63  54 SW5       30.14F
MILLVILLE      SUNNY     81  60  48 VRB3      30.15F
ATLANTIC CITY  SUNNY     79  62  56 S9        30.16F
WRIGHTSTOWN    NOT AVBL
TOMS RIVER     CLOUDY    82  57  42 S7        30.15F
BELMAR         CLOUDY    81  59  47 VRB5      30.16F
$$

PAZ047>061-062-071-291600-
EASTERN PENNSYLVANIA

CITY           SKY/WX    TMP DP  RH WIND       PRES   REMARKS
PHILADELPHIA   MOSUNNY   79  61  53 SW8       30.15F
ALLENTOWN      SUNNY     83  62  49 S3        30.14S
SCRANTON       SUNNY     83  66  56 VRB5      30.13F
$$

CTZ002-004>006-009-010-012-RIZ004-006-007-MAZ004-011-015-291600-
SOUTHERN NEW ENGLAND
 IN CT

CITY           SKY/WX    TMP DP  RH WIND       PRES   REMARKS
BRADLEY INTL   PTSUNNY   81  66  60 VRB5      30.13S
HARTFORD       CLOUDY    84  68  58 S6        30.12F
DANBURY        SUNNY     83  68  60 S3        30.14F
WTRBRY/OXFORD  NOT AVBL
BRIDGEPORT     CLOUDY    79  58  48 SW7       30.13F
MERIDEN        PTSUNNY   84  64  50 VRB5      30.13F
NEW HAVEN      CLOUDY    76  58  53 S6        30.14S
CHESTER        FAIR      81  63  54 VRB3      30.15F
GROTON         SUNNY     73  61  65 SE7       30.15F
WILLIMANTIC    SUNNY     83  64  52 E6        30.15F

 IN RI

CITY           SKY/WX    TMP DP  RH WIND       PRES   REMARKS
PROVIDENCE     PTSUNNY   74  62  66 NE7       30.19R
BLOCK ISLAND   SUNNY     72  61  68 SW6       30.18S
WESTERLY       SUNNY     74  57  55 SE7       30.17S

 IN MA

CITY           SKY/WX    TMP DP  RH WIND       PRES   REMARKS
BOSTON         CLOUDY    59  54  83 NE12      30.22S
WORCESTER      CLOUDY    61  58  90 NE8       30.21S FOG
WESTFIELD      PTSUNNY   80  67  64 VRB3      30.15R
PROVINCETOWN   MOSUNNY   63  56  78 N9        30.20R
NANTUCKET      SUNNY     72  61  68 W12       30.18R
$$

ANZ330-335-338-340-345-350-353-355-291600-
COASTAL MARINE OBSERVATIONS


STATION/POSITION TIME  SKY/WX   TEMP    WIND        PRES    VSBY  WAVE
                                AIR SEA DIR/SP/G                  HT/PER
                 (UTC)          (F)     (DEG/KT/KT) (MB)    (MI)  (FT/S)
NY HARB ENTRANCE 1450            61 59  180/ 10/ 10 1020.8          2/ 8
20S FIRE ISLAND  1350            62 60  190/ 10/ 10 1021.5          2/ 8
GREAT SOUTH BAY  NOT AVBL
23 SSW MONTAUK P 1450            60 58  220/  8/ 10 1021.1          2/ 8
15 E BARNEGAT LI 1422               60                N/A           2/ 8
HUDSON CANYON    1350            61 60              1022.3          3/ 8
KINGS POINT      1400            75 62              1020.3
EXECUTION ROCKS  NOT AVBL
CENTRAL LI SOUND 1400            70      CALM  /  2   N/A           1
EASTERN LI SOUND 1400            60 55  130/  4/  6   N/A
ROBBINS REEF     1400            73     160/ 11/ 12 1019.9
$$


>>>>>>>>>>>>>>>>>>>>>>>>>>>> KEY <<<<<<<<<<<<<<<<<<<<<<<<<<<
>                                                          <
>     SKY/WX - SKY CONDITION/PRESENT WEATHER               <
>     TMP    - TEMPERATURE IN FAHRENHEIT                   <
>     DP     - DEWPOINT IN FAHRENHEIT                      <
>     RH     - RELATIVE HUMIDITY IN PERCENT                <
>     WIND   - DIRECTION AND SPEED IN MPH                  <
>     PRES   - MEAN SEA LEVEL PRESSURE IN INCHES OF HG     <
>     WCI    - WIND CHILL INDEX                            <
>     VSB    - VISIBILITY IN MILES                         <
>     HX     - HEAT INDEX                                  <
>     TC     - TEMPERATURE IN CELSIUS                      <
>     VRB    - VARIABLE WIND DIRECTION                     <
>                                                          <
>>>>>>>>>>>>>>>>>>>>>>>>>>>> KEY <<<<<<<<<<<<<<<<<<<<<<<<<<<






USA.gov is the U.S. government's official web portal to all federal, state and local government web resources and services.